User: anonymous   Login
Location: Gerlach
(40.6516°N, 119.3568°W)
Time: 19:29:04
(UTC-08:00)
Language:

STARS - Orbit

View from above orbital plane
View from above orbital plane
View from above satellite
View from above satellite

Ground track
Ground track

The orbit data is extracted from the following two-line orbital elements,

1 33498U 09002G   24057.77888582  .00005258  00000-0  63417-3 0  9993
2 33498  98.1248 329.9025 0011468  54.3634 305.8646 14.84212971813560
Epoch (UTC): 26 February 2024 18:41:35
Eccentricity: 0.0011468
inclination: 98.1248°
perigee height: 608 km
apogee height: 624 km
right ascension of ascending node: 329.9025°
argument of perigee: 54.3634°
revolutions per day: 14.84212971
mean anomaly at epoch: 305.8646°
orbit number at epoch: 81356

The dashed part of the orbit path shows where the satellite is in the earth's shadow,  

DLR